Location: Tamazert
(32.6352°N, 5.2072°W)
Time: 15:51:14
(UTC+00:00)

Vanguard 3 - Pass Details

Date: 10 October 2022
Orbit: 509 x 3255 km, 33.3° (Epoch: 08 December)

Event Time Altitude Azimuth Distance (km) Brightness Sun altitude
Rises 13:49:19 0° 263° (W) 3,807 11.0 43.8°
Reaches altitude 10° 13:52:52 10° 242° (WSW) 3,264 11.2 43.3°
Maximum altitude 13:57:44 16° 206° (SSW) 3,332 11.6 42.7°
Drops below altitude 10° 14:04:11 10° 173° (S) 4,517 11.6 41.8°
Sets 14:10:45 0° 156° (SSE) 6,132 11.9 40.9°
